| time (UTC) | temp F | wind direction | speed MPH | gust MPH | rain 1hr in | rain 24hr in | rain mn in | humidity % | barometer mb |
| 20260901051502 | 66 | 148 | 1.0 | 7.0 | 0.00 | 0.00 | 0.00 | 21 | 1010.5 |
| 20260901050002 | 67 | 277 | 0.0 | 2.0 | 0.00 | 0.00 | 0.00 | 20 | 1010.2 |
| 20260901044502 | 69 | 251 | 0.0 | 2.0 | 0.00 | 0.00 | 0.00 | 18 | 1010.0 |
| 20260901043007 | 69 | 226 | 2.0 | 5.0 | 0.00 | 0.00 | 0.00 | 20 | 1010.1 |
| 20260901041501 | 70 | 256 | 0.0 | 3.0 | 0.00 | 0.00 | 0.00 | 19 | 1010.0 |
| 20260901040104 | 72 | 301 | 2.0 | 5.0 | 0.00 | 0.00 | 0.00 | 18 | 1010.0 |
| 20260901034502 | 72 | 334 | 0.0 | 10.0 | 0.00 | 0.00 | 0.00 | 18 | 1009.9 |
| 20260901033101 | 72 | 332 | 4.0 | 9.0 | 0.00 | 0.00 | 0.00 | 21 | 1009.9 |
| 20260901031601 | 71 | 323 | 5.0 | 9.0 | 0.00 | 0.00 | 0.00 | 18 | 1009.8 |
| 20260901030059 | 71 | 306 | 2.0 | 6.0 | 0.00 | 0.00 | 0.00 | 23 | 1009.6 |
| 20260901024603 | 71 | 159 | 1.0 | 2.0 | 0.00 | 0.00 | 0.00 | 23 | 1009.3 |
| 20260901023059 | 73 | 239 | 1.0 | 2.0 | 0.00 | 0.00 | 0.00 | 22 | 1009.1 |
| 20260901021559 | 74 | 98 | 0.0 | 1.0 | 0.00 | 0.00 | 0.00 | 15 | 1009.1 |
| 20260901020058 | 77 | 98 | 0.0 | 2.0 | 0.00 | 0.00 | 0.00 | 14 | 1009.1 |
| 20260901014556 | 79 | 128 | 0.0 | 4.0 | 0.00 | 0.00 | 0.00 | 14 | 1009.1 |
| 20260901013105 | 81 | 151 | 0.0 | 3.0 | 0.00 | 0.00 | 0.00 | 14 | 1009.0 |
| 20260901011555 | 84 | 42 | 0.0 | 2.0 | 0.00 | 0.00 | 0.00 | 15 | 1009.0 |
| 20260901010057 | 85 | 87 | 0.0 | 6.0 | 0.00 | 0.00 | 0.00 | 15 | 1009.1 |
| 20260901004559 | 85 | 348 | 0.0 | 4.0 | 0.00 | 0.00 | 0.00 | 16 | 1008.8 |
| 20260901003101 | 85 | 21 | 0.0 | 1.0 | 0.00 | 0.00 | 0.00 | 18 | 1008.7 |
| 20260901001553 | 84 | 28 | 5.0 | 14.0 | 0.00 | 0.00 | 0.00 | 16 | 1008.7 |
| 20260901000053 | 84 | 14 | 6.0 | 10.0 | 0.00 | 0.00 | 0.00 | 15 | 1008.8 |
| 20260831234553 | 85 | 38 | 10.0 | 14.0 | 0.00 | 0.00 | 0.00 | 16 | 1008.8 |
| 20260831233050 | 87 | 36 | 0.0 | 9.0 | 0.00 | 0.00 | 0.00 | 18 | 1008.8 |
| 20260831231559 | 87 | 51 | 2.0 | 6.0 | 0.00 | 0.00 | 0.00 | 15 | 1008.9 |
| 20260831230051 | 87 | 43 | 4.0 | 9.0 | 0.00 | 0.00 | 0.00 | 14 | 1009.1 |
| 20260831224547 | 88 | 125 | 0.0 | 7.0 | 0.00 | 0.00 | 0.00 | 15 | 1009.3 |
| 20260831223045 | 86 | 131 | 2.0 | 8.0 | 0.00 | 0.00 | 0.00 | 16 | 1009.4 |
| 20260831221545 | 86 | 100 | 3.0 | 7.0 | 0.00 | 0.00 | 0.00 | 17 | 1009.7 |
| 20260831220044 | 86 | 54 | 3.0 | 9.0 | 0.00 | 0.00 | 0.00 | 16 | 1009.9 |
| 20260831214541 | 85 | 331 | 2.0 | 8.0 | 0.00 | 0.00 | 0.00 | 16 | 1010.0 |
| 20260831213045 | 85 | 54 | 4.0 | 11.0 | 0.00 | 0.00 | 0.00 | 16 | 1010.1 |
| 20260831211540 | 84 | 355 | 3.0 | 6.0 | 0.00 | 0.00 | 0.00 | 16 | 1010.4 |
| 20260831210039 | 84 | 32 | 5.0 | 10.0 | 0.00 | 0.00 | 0.00 | 16 | 1010.6 |
| 20260831204536 | 84 | 155 | 4.0 | 6.0 | 0.00 | 0.00 | 0.00 | 15 | 1010.9 |
| 20260831203039 | 84 | 35 | 1.0 | 6.0 | 0.00 | 0.00 | 0.00 | 17 | 1011.2 |
| 20260831201540 | 83 | 40 | 3.0 | 11.0 | 0.00 | 0.00 | 0.00 | 16 | 1011.4 |
| 20260831200031 | 83 | 54 | 2.0 | 9.0 | 0.00 | 0.00 | 0.00 | 15 | 1011.7 |
| 20260831194558 | 82 | 61 | 0.0 | 4.0 | 0.00 | 0.00 | 0.00 | 16 | 1011.9 |
| 20260831193028 | 81 | 106 | 0.0 | 5.0 | 0.00 | 0.00 | 0.00 | 17 | 1012.1 |
| 20260831191525 | 80 | 47 | 2.0 | 6.0 | 0.00 | 0.00 | 0.00 | 15 | 1012.3 |
| 20260831190030 | 78 | 18 | 5.0 | 9.0 | 0.00 | 0.00 | 0.00 | 21 | 1012.4 |
| 20260831184520 | 77 | 38 | 5.0 | 11.0 | 0.00 | 0.00 | 0.00 | 22 | 1012.5 |
| 20260831183018 | 76 | 60 | 5.0 | 13.0 | 0.00 | 0.00 | 0.00 | 24 | 1012.8 |
| 20260831181515 | 75 | 33 | 3.0 | 9.0 | 0.00 | 0.00 | 0.00 | 27 | 1013.1 |
| 20260831180014 | 74 | 129 | 1.0 | 10.0 | 0.00 | 0.00 | 0.00 | 25 | 1013.2 |
| 20260831174527 | 73 | 13 | 4.0 | 9.0 | 0.00 | 0.00 | 0.00 | 26 | 1013.4 |
| 20260831173009 | 73 | 35 | 4.0 | 8.0 | 0.00 | 0.00 | 0.00 | 26 | 1013.5 |
| 20260831171510 | 73 | 36 | 1.0 | 5.0 | 0.00 | 0.00 | 0.00 | 24 | 1013.7 |
| 20260831170007 | 72 | 357 | 0.0 | 4.0 | 0.00 | 0.00 | 0.00 | 24 | 1013.8 |
| 20260831164505 | 72 | 115 | 0.0 | 4.0 | 0.00 | 0.00 | 0.00 | 31 | 1014.0 |
| 20260831163002 | 70 | 241 | 0.0 | 3.0 | 0.00 | 0.00 | 0.00 | 32 | 1014.1 |
| 20260831161558 | 68 | 130 | 1.0 | 3.0 | 0.00 | 0.00 | 0.00 | 33 | 1014.1 |
| 20260831160055 | 66 | 106 | 0.0 | 2.0 | 0.00 | 0.00 | 0.00 | 37 | 1014.0 |
| 20260831154554 | 64 | 133 | 0.0 | 3.0 | 0.00 | 0.00 | 0.00 | 36 | 1014.0 |
| 20260831153047 | 62 | 187 | 0.0 | 3.0 | 0.00 | 0.00 | 0.00 | 38 | 1014.1 |
| 20260831151548 | 59 | 126 | 1.0 | 5.0 | 0.00 | 0.00 | 0.00 | 41 | 1014.2 |
| 20260831150044 | 58 | 137 | 3.0 | 7.0 | 0.00 | 0.00 | 0.00 | 42 | 1014.1 |
| 20260831144600 | 56 | 117 | 4.0 | 7.0 | 0.00 | 0.00 | 0.00 | 45 | 1014.1 |
| 20260831143042 | 55 | 150 | 2.0 | 3.0 | 0.00 | 0.00 | 0.00 | 45 | 1014.1 |
| 20260831141540 | 54 | 125 | 0.0 | 1.0 | 0.00 | 0.00 | 0.00 | 46 | 1014.1 |
| 20260831140041 | 53 | 284 | 0.0 | 0.0 | 0.00 | 0.00 | 0.00 | 49 | 1013.8 |
| 20260831134538 | 51 | 288 | 0.0 | 2.0 | 0.00 | 0.00 | 0.00 | 49 | 1013.9 |
| 20260831133039 | 49 | 136 | 0.0 | 1.0 | 0.00 | 0.00 | 0.00 | 53 | 1013.6 |
| 20260831131534 | 46 | 156 | 1.0 | 2.0 | 0.00 | 0.00 | 0.00 | 57 | 1013.4 |
| 20260831130033 | 43 | 155 | 0.0 | 2.0 | 0.00 | 0.00 | 0.00 | 65 | 1013.3 |
| 20260831124536 | 42 | 224 | 0.0 | 0.0 | 0.00 | 0.00 | 0.00 | 69 | 1013.1 |
| 20260831123033 | 45 | 125 | 0.0 | 1.0 | 0.00 | 0.00 | 0.00 | 57 | 1013.1 |
| 20260831121540 | 46 | 157 | 4.0 | 8.0 | 0.00 | 0.00 | 0.00 | 53 | 1012.8 |
| 20260831120034 | 45 | 125 | 1.0 | 3.0 | 0.00 | 0.00 | 0.00 | 62 | 1012.5 |
| 20260831114543 | 45 | 128 | 0.0 | 1.0 | 0.00 | 0.00 | 0.00 | 60 | 1012.3 |
| 20260831113021 | 48 | 237 | 0.0 | 1.0 | 0.00 | 0.00 | 0.00 | 55 | 1012.2 |
| 20260831111519 | 45 | 151 | 0.0 | 0.0 | 0.00 | 0.00 | 0.00 | 60 | 1012.1 |
| 20260831110020 | 47 | 177 | 0.0 | 0.0 | 0.00 | 0.00 | 0.00 | 57 | 1011.9 |
| 20260831104527 | 48 | 170 | 0.0 | 0.0 | 0.00 | 0.00 | 0.00 | 57 | 1011.8 |
| 20260831103017 | 48 | 176 | 0.0 | 1.0 | 0.00 | 0.00 | 0.00 | 56 | 1011.6 |
| 20260831101512 | 48 | 227 | 0.0 | 0.0 | 0.00 | 0.00 | 0.00 | 58 | 1011.4 |
| 20260831100010 | 47 | 227 | 0.0 | 0.0 | 0.00 | 0.00 | 0.00 | 60 | 1011.2 |
| 20260831094508 | 45 | 227 | 0.0 | 3.0 | 0.00 | 0.00 | 0.00 | 66 | 1010.9 |
| 20260831093014 | 45 | 173 | 0.0 | 1.0 | 0.00 | 0.00 | 0.00 | 65 | 1010.6 |
| 20260831091502 | 48 | 45 | 1.0 | 4.0 | 0.00 | 0.00 | 0.00 | 59 | 1010.4 |
| 20260831090100 | 51 | 164 | 0.0 | 1.0 | 0.00 | 0.00 | 0.00 | 56 | 1010.2 |
| 20260831084634 | 52 | 26 | 1.0 | 4.0 | 0.00 | 0.00 | 0.00 | 54 | 1010.3 |
| 20260831083055 | 53 | 159 | 0.0 | 0.0 | 0.00 | 0.00 | 0.00 | 53 | 1010.1 |
| 20260831081552 | 54 | 166 | 0.0 | 1.0 | 0.00 | 0.00 | 0.00 | 52 | 1010.0 |
| 20260831080107 | 54 | 49 | 0.0 | 1.0 | 0.00 | 0.00 | 0.00 | 54 | 1010.1 |
| 20260831074600 | 55 | 45 | 0.0 | 2.0 | 0.00 | 0.00 | 0.00 | 50 | 1009.9 |
| 20260831073049 | 56 | 135 | 0.0 | 2.0 | 0.00 | 0.00 | 0.00 | 48 | 1009.9 |
| 20260831071552 | 56 | 151 | 1.0 | 3.0 | 0.00 | 0.00 | 0.00 | 46 | 1010.0 |
| 20260831070045 | 56 | 232 | 0.0 | 4.0 | 0.00 | 0.00 | 0.00 | 48 | 1010.0 |
| 20260831064543 | 55 | 129 | 4.0 | 7.0 | 0.00 | 0.00 | 0.00 | 52 | 1009.7 |
| 20260831063039 | 58 | 165 | 0.0 | 4.0 | 0.00 | 0.00 | 0.00 | 48 | 1010.0 |
| 20260831061540 | 59 | 203 | 1.0 | 6.0 | 0.00 | 0.00 | 0.00 | 43 | 1009.9 |
| 20260831060045 | 60 | 156 | 2.0 | 6.0 | 0.00 | 0.00 | 0.00 | 46 | 1010.0 |
| 20260831054534 | 60 | 108 | 1.0 | 3.0 | 0.00 | 0.00 | 0.00 | 48 | 1010.0 |
| 20260831053036 | 63 | 132 | 0.0 | 2.0 | 0.00 | 0.00 | 0.00 | 48 | 1009.9 |